Cordele, GA

5:02 AM EDT on October 01, 2016 (GMT -0400)
Crisp County-Cordele

Weather History for KCKF - August, 2014

Change the Weather History Date:

Sunday, August 17, 2014

  Actual Average (KABY) Record (KABY)
Temperature  
Mean Temperature 84 °F 82 °F  
Max Temperature 97 °F 92 °F 102 °F (1943)
Min Temperature 71 °F 72 °F 61 °F (1983)
Degree Days  
Heating Degree Days 0 0  
Month to date heating degree days 0  
Since 1 June heating degree days 0  
Since 1 July heating degree days 0  
Cooling Degree Days 19 17  
Month to date cooling degree days 289  
Year to date cooling degree days 1735  
Since 1 June cooling degree days 1295  
Growing Degree Days 34 (Base 50)    
Moisture  
Dew Point 70 °F    
Average Humidity 69    
Maximum Humidity 88    
Minimum Humidity 34    
Precipitation  
Precipitation 0.00 in 0.17 in 1.02 in (2013)
Month to date precipitation 2.76  
Year to date precipitation 33.52  
Sea Level Pressure  
Sea Level Pressure 30.04 in    
Wind  
Wind Speed 3 mph (WSW)    
Max Wind Speed 26 mph    
Max Gust Speed 32 mph    
Visibility 10 miles    
Events Rain , Thunderstorm    
T = Trace of Precipitation, MM = Missing Value Source: NWS Daily Summary

Daily Weather History Graph

Daily Weather History Graph

Search for Another Location

Airport or City:

Trip Planner

Search our weather history database for the weather conditions in past years. The results will help you decide how hot, cold, wet, or windy it might be!

Date:

Astronomy

Aug. 17, 2014 Rise Set
Actual Time 7:00 AM EDT 8:16 PM EDT
Civil Twilight 6:35 AM EDT 8:42 PM EDT
Nautical Twilight 6:04 AM EDT 9:12 PM EDT
Astronomical Twilight 5:33 AM EDT 9:44 PM EDT
Moon 12:27 AM EDT (8/17) 2:17 PM EDT (8/17)
Length of Visible Light 14h 07m
Length of Day
13h 15m
Waning Gibbous, 48% of the Moon is Illuminated
Aug 17
Waning Gibbous
Aug 25
New
Sep 2
First Quarter
Sep 8
Full
Sep 15
Last Quarter

Hourly Weather History & Observations

Time (EDT) Temp. Heat Index Dew Point Humidity Pressure Visibility Wind Dir Wind Speed Gust Speed Precip Events Conditions
12:15 AM 74.5 °F - 66.7 °F 77% 30.04 in 10.0 mi Calm Calm - N/A   Clear
12:35 AM 73.8 °F - 67.1 °F 80% 30.04 in 10.0 mi Calm Calm - N/A   Clear
12:55 AM 74.3 °F - 66.6 °F 77% 30.04 in 10.0 mi Calm Calm - N/A   Clear
1:15 AM 73.0 °F - 66.9 °F 81% 30.04 in 10.0 mi Calm Calm - N/A   Clear
1:55 AM 72.7 °F - 66.6 °F 81% 30.04 in 10.0 mi Calm Calm - N/A   Clear
2:15 AM 72.0 °F - 66.7 °F 84% 30.04 in 10.0 mi Calm Calm - N/A   Clear
2:35 AM 73.4 °F - 66.2 °F 78% 30.04 in 10.0 mi Calm Calm - N/A   Clear
2:55 AM 73.0 °F - 66.2 °F 79% 30.04 in 10.0 mi Calm Calm - N/A   Clear
3:15 AM 73.9 °F - 66.2 °F 77% 30.04 in 10.0 mi SW 4.6 mph - N/A   Clear
3:35 AM 72.9 °F - 66.2 °F 80% 30.04 in 10.0 mi Calm Calm - N/A   Clear
3:55 AM 73.2 °F - 66.2 °F 79% 30.04 in 10.0 mi Calm Calm - N/A   Clear
4:15 AM 72.3 °F - 66.2 °F 81% 30.04 in 10.0 mi Calm Calm - N/A   Clear
4:35 AM 71.8 °F - 66.6 °F 84% 30.04 in 10.0 mi Calm Calm - N/A   Clear
4:55 AM 71.2 °F - 66.6 °F 85% 30.04 in 10.0 mi Calm Calm - N/A   Clear
5:15 AM 71.1 °F - 66.9 °F 87% 30.05 in 10.0 mi Calm Calm - N/A   Clear
5:35 AM 71.1 °F - 66.7 °F 86% 30.05 in 10.0 mi Calm Calm - N/A   Clear
5:55 AM 71.2 °F - 66.6 °F 85% 30.06 in 10.0 mi Calm Calm - N/A   Clear
6:15 AM 71.6 °F - 67.1 °F 86% 30.06 in 10.0 mi Calm Calm - N/A   Clear
6:35 AM 71.1 °F - 66.6 °F 86% 30.06 in 10.0 mi Calm Calm - N/A   Clear
6:55 AM 71.6 °F - 66.9 °F 85% 30.07 in 10.0 mi Calm Calm - N/A   Clear
7:15 AM 71.2 °F - 67.3 °F 87% 30.08 in 10.0 mi Calm Calm - N/A   Clear
7:35 AM 71.8 °F - 68.2 °F 88% 30.08 in 7.0 mi Calm Calm - N/A   Clear
7:55 AM 74.8 °F - 69.8 °F 84% 30.08 in 10.0 mi Calm Calm - N/A   Clear
8:15 AM 76.1 °F - 70.5 °F 83% 30.09 in 10.0 mi SW 4.6 mph - N/A   Clear
8:35 AM 77.9 °F - 70.9 °F 79% 30.08 in 10.0 mi SW 3.5 mph - N/A   Clear
8:55 AM 78.8 °F - 71.1 °F 77% 30.09 in 10.0 mi WSW 4.6 mph - N/A   Clear
9:15 AM 79.7 °F - 71.6 °F 76% 30.09 in 10.0 mi West 4.6 mph - N/A   Clear
9:35 AM 82.2 °F 87.3 °F 72.5 °F 72% 30.09 in 10.0 mi West 6.9 mph - N/A   Clear
9:55 AM 83.3 °F 89.3 °F 72.9 °F 71% 30.09 in 10.0 mi West 6.9 mph - N/A   Clear
10:15 AM 85.1 °F 91.5 °F 72.7 °F 66% 30.09 in 10.0 mi West 8.1 mph - N/A   Clear
10:35 AM 86.5 °F 92.9 °F 72.1 °F 62% 30.10 in 10.0 mi West 6.9 mph - N/A   Clear
10:55 AM 87.8 °F 94.7 °F 72.1 °F 60% 30.09 in 10.0 mi West 9.2 mph - N/A   Clear
11:15 AM 88.5 °F 94.9 °F 71.8 °F 57% 30.09 in 10.0 mi SW 8.1 mph - N/A   Clear
11:35 AM 89.6 °F 95.2 °F 70.3 °F 53% 30.08 in 10.0 mi West 11.5 mph - N/A   Scattered Clouds
11:55 AM 90.3 °F 96.2 °F 70.5 °F 52% 30.08 in 10.0 mi WSW 8.1 mph - N/A   Scattered Clouds
12:15 PM 91.6 °F 96.7 °F 69.1 °F 48% 30.07 in 10.0 mi WSW 9.2 mph 19.6 mph N/A   Scattered Clouds
12:35 PM 92.3 °F 96.5 °F 68.4 °F 45% 30.06 in 10.0 mi WNW 8.1 mph - N/A   Scattered Clouds
12:55 PM 92.3 °F 96.5 °F 68.0 °F 45% 30.05 in 10.0 mi West 4.6 mph - N/A   Scattered Clouds
1:15 PM 92.7 °F 96.7 °F 68.0 °F 44% 30.05 in 10.0 mi West 6.9 mph - N/A   Mostly Cloudy
1:35 PM 94.6 °F 99.4 °F 68.2 °F 42% 30.04 in 10.0 mi SSW 10.4 mph - N/A   Scattered Clouds
1:55 PM 95.0 °F 99.0 °F 67.5 °F 40% 30.03 in 10.0 mi SW 9.2 mph - N/A   Scattered Clouds
2:15 PM 94.5 °F 99.1 °F 68.0 °F 42% 30.02 in 10.0 mi WSW 12.7 mph - N/A   Mostly Cloudy
2:35 PM 94.1 °F 98.4 °F 68.0 °F 42% 30.02 in 10.0 mi WSW 4.6 mph - N/A   Mostly Cloudy
2:55 PM 96.4 °F 100.0 °F 66.6 °F 37% 30.02 in 10.0 mi WSW 11.5 mph - N/A   Scattered Clouds
3:15 PM 96.3 °F 99.7 °F 66.4 °F 37% 30.01 in 10.0 mi WSW 13.8 mph 17.3 mph N/A   Scattered Clouds
3:35 PM 97.2 °F 100.7 °F 66.0 °F 36% 30.01 in 10.0 mi West 9.2 mph - N/A   Mostly Cloudy
3:55 PM 96.6 °F 99.8 °F 65.7 °F 36% 29.99 in 10.0 mi WSW 10.4 mph - N/A   Scattered Clouds
4:15 PM 97.7 °F 100.6 °F 64.9 °F 34% 29.99 in 10.0 mi West 12.7 mph 16.1 mph N/A   Scattered Clouds
4:35 PM 93.4 °F 98.6 °F 69.1 °F 45% 30.00 in 10.0 mi SW 11.5 mph 17.3 mph N/A   Mostly Cloudy
4:55 PM 93.2 °F 96.7 °F 66.9 °F 42% 30.00 in 10.0 mi SW 10.4 mph - N/A   Mostly Cloudy
5:15 PM 91.0 °F 95.2 °F 68.2 °F 47% 30.01 in 10.0 mi WSW 8.1 mph - N/A Thunderstorm Overcast
5:35 PM 90.9 °F 96.2 °F 70.0 °F 50% 30.02 in 10.0 mi WSW 26.5 mph 32.2 mph N/A   Mostly Cloudy
6:15 PM 81.5 °F 86.7 °F 73.4 °F 76% 30.03 in 7.0 mi SSW 11.5 mph 19.6 mph N/A Rain , Thunderstorm Rain
6:35 PM 82.0 °F 88.6 °F 74.8 °F 79% 30.02 in 10.0 mi SSW 5.8 mph - N/A Thunderstorm Mostly Cloudy
6:55 PM 82.9 °F 89.7 °F 74.1 °F 75% 30.01 in 10.0 mi SW 4.6 mph - N/A   Scattered Clouds
7:15 PM 82.9 °F 90.2 °F 75.2 °F 77% 30.01 in 10.0 mi SSW 3.5 mph - N/A   Scattered Clouds
7:35 PM 83.3 °F 89.9 °F 73.8 °F 73% 30.02 in 10.0 mi WSW 4.6 mph - N/A   Scattered Clouds
7:55 PM 82.9 °F 89.4 °F 73.8 °F 74% 30.02 in 10.0 mi SSW 5.8 mph - N/A   Clear
8:15 PM 82.2 °F 87.6 °F 72.7 °F 73% 30.01 in 10.0 mi SSW 4.6 mph - N/A   Clear
8:35 PM 81.9 °F 87.0 °F 72.9 °F 74% 30.01 in 10.0 mi SSW 4.6 mph - N/A   Clear
8:55 PM 81.5 °F 86.5 °F 73.0 °F 75% 30.00 in 10.0 mi SSW 4.6 mph - N/A   Clear
9:15 PM 81.0 °F 86.0 °F 73.4 °F 78% 30.00 in 10.0 mi SSW 5.8 mph - N/A   Clear
9:35 PM 80.6 °F 85.2 °F 73.2 °F 78% 30.00 in 10.0 mi SSW 5.8 mph - N/A   Clear
9:55 PM 80.8 °F 85.4 °F 73.0 °F 77% 30.00 in 10.0 mi SSW 5.8 mph - N/A   Clear
10:15 PM 79.9 °F - 73.0 °F 80% 30.02 in 10.0 mi WSW 4.6 mph - N/A   Clear
10:35 PM 79.3 °F - 73.4 °F 82% 30.04 in 10.0 mi WSW 4.6 mph - N/A   Clear
10:55 PM 79.0 °F - 73.0 °F 82% 30.04 in 10.0 mi WSW 5.8 mph - N/A   Clear
11:15 PM 79.5 °F - 73.4 °F 81% 30.04 in 10.0 mi SW 4.6 mph - N/A   Clear
11:35 PM 79.2 °F - 73.4 °F 82% 30.04 in 10.0 mi SW 3.5 mph - N/A   Clear
11:55 PM 79.0 °F - 73.0 °F 82% 30.04 in 10.0 mi SW 5.8 mph - N/A   Clear